Starlink 37228

operational
NORAD ID: 68571 Int'l Des: 2026-070 Owner: SPXS Country: US Constellation: starlink
MEOELLIPTICALHEO_ELLIPTICALSEMI_SYNCMOLNIYA

About Starlink 37228

Description loading...

Live Position

Loading 3D Globe...

Upcoming Passes

Altitude History

Altitude vs Time

uPlot chart will show altitude changes over time

Two-Line Element Set

1 68571U 26071A 26093.32069436 -.00001265 00000-0 16587-2 0 9990
2 68571 62.7917 238.8364 7241466 284.9481 10.7459 1.98618778 13
Epoch: Apr 3, 2026 • Age: 21 hours

Current Status

Altitude 29461.0 km
Velocity 2.71 km/s
Sub-Earth Point 41.42°N, 127.7°E
Launch Date Apr 2, 2026
Age 1 days
Type internet

Technical Details

Classification Payload
Mass 575.00 kg
Dry Mass 530.00 kg
Total Mass 575.00 kg
Length 0.30 m
Diameter 4.10 m
Span 29.00 m
Shape Box + pan
Manufacturer SPXS
Bus Type Starlink V2MO
Phase Status In Orbit
Owner/State SPXS/US

Large Constellations

Loading constellations...